FW7562 Weather Reports


time (UTC)temp
C
wind
direction
speed
KPH
gust
KPH
rain 1hr
cm
rain 24hr
cm
rain mn
cm
humidity
%
barometer
mb
20260504081523 7 160 9.7 14.5 0.00 0.00 0.00 57 1013.7
20260504080120 7 165 8.0 11.3 0.00 0.00 0.00 56 1013.7
20260504044600 8 157 6.4 11.3 0.00 0.00 0.00 52 1014.0
20260504043059 8 164 4.8 8.0 0.00 0.00 0.00 52 1014.0
20260504041551 8 168 3.2 6.4 0.00 0.00 0.00 52 1014.0
20260504040111 9 171 6.4 9.7 0.00 0.00 0.00 50 1014.1
20260504034547 9 190 3.2 4.8 0.00 0.00 0.00 50 1014.1
20260504033049 9 190 1.6 4.8 0.00 0.00 0.00 50 1014.1
20260504031555 9 190 3.2 4.8 0.00 0.00 0.00 51 1014.2
20260504030046 9 200 3.2 4.8 0.00 0.00 0.00 50 1014.2
20260504024545 10 254 1.6 3.2 0.00 0.00 0.00 49 1014.2
20260504023045 10 254 0.0 0.0 0.00 0.00 0.00 49 1014.6
20260504021544 10 254 0.0 0.0 0.00 0.00 0.00 48 1014.6
20260504020053 10 254 0.0 3.2 0.00 0.00 0.00 49 1014.4
20260504014544 10 254 0.0 1.6 0.00 0.00 0.00 49 1014.4
20260504013044 10 254 0.0 1.6 0.00 0.00 0.00 51 1014.4
20260504011543 10 254 0.0 1.6 0.00 0.00 0.00 50 1014.3
20260504010042 10 254 0.0 3.2 0.00 0.00 0.00 47 1014.3
20260504004541 10 254 3.2 6.4 0.00 0.00 0.00 47 1014.2
20260504003040 10 241 4.8 14.5 0.00 0.00 0.00 47 1014.0
20260504001549 10 232 1.6 4.8 0.00 0.00 0.00 48 1013.6
20260504000040 10 232 1.6 4.8 0.00 0.00 0.00 48 1013.4
20260503234600 10 232 1.6 4.8 0.00 0.00 0.00 49 1013.3
20260503233046 11 233 1.6 4.8 0.00 0.00 0.00 46 1013.4
20260503231538 11 236 1.6 4.8 0.00 0.00 0.00 46 1013.4
20260503230038 10 236 1.6 4.8 0.00 0.00 0.00 49 1013.3
20260503224536 11 236 1.6 4.8 0.00 0.00 0.00 47 1013.4
20260503223038 11 236 1.6 4.8 0.00 0.00 0.00 47 1013.3
20260503221537 11 236 1.6 8.0 0.00 0.00 0.00 45 1013.5
20260503220034 11 256 3.2 8.0 0.00 0.00 0.00 45 1013.7
20260503214532 11 239 0.0 6.4 0.00 0.00 0.00 47 1013.7
20260503213036 10 246 3.2 9.7 0.00 0.00 0.00 46 1013.7
20260503211539 11 246 4.8 19.3 0.00 0.00 0.00 47 1013.6
20260503210031 11 252 8.0 14.5 0.00 0.00 0.00 48 1014.0
20260503204530 11 261 4.8 14.5 0.00 0.00 0.00 46 1013.9
20260503203031 10 243 8.0 14.5 0.00 0.00 0.00 45 1013.9
20260503201529 11 284 6.4 17.7 0.00 0.00 0.00 42 1013.7
20260503200029 11 279 3.2 14.5 0.00 0.00 0.00 39 1013.8
20260503194526 11 250 4.8 12.9 0.00 0.00 0.00 41 1013.9
20260503193025 11 253 6.4 12.9 0.00 0.00 0.00 38 1014.0
20260503191530 11 257 6.4 11.3 0.00 0.00 0.00 39 1014.4
20260503190023 11 245 4.8 11.3 0.00 0.00 0.00 38 1014.2
20260503184520 11 312 6.4 12.9 0.00 0.00 0.00 37 1014.5
20260503183019 10 279 6.4 14.5 0.00 0.00 0.00 38 1014.7
20260503181517 10 213 8.0 17.7 0.00 0.00 0.00 37 1014.8
20260503180016 10 244 4.8 14.5 0.00 0.00 0.00 38 1014.9
20260503174513 10 258 3.2 11.3 0.00 0.00 0.00 41 1015.4
20260503173012 10 225 6.4 19.3 0.00 0.00 0.00 43 1015.6
20260503171510 10 241 6.4 12.9 0.00 0.00 0.00 43 1015.7